Wind_Speed
13 13 13 13 13 13 12 12 12 12 12 12 12 11 11 11 11 11 11 11 11 10 11 11 11 11 11 10 11 11 11 11 11 10 10 10 10 10 10 9 10 10 11
15 15 15 15 15 15 15 14 14 14 14 14 13 13 14 14 14 13 13 13 13 12 12 12 12 12 12 12 12 13 13 13 13 12 12 12 12 12 12 11 11 11 12
16 16 17 17 17 17 17 17 16 16 16 16 15 15 15 16 16 15 15 15 15 14 14 14 13 14 14 13 14 14 14 14 15 14 14 14 14 14 14 13 13 13 13
19 18 19 19 19 19 19 19 19 18 18 18 18 17 17 18 18 17 17 17 17 16 16 16 15 15 15 15 15 15 15 15 15 16 16 16 16 16 16 16 15 15 15
20 20 21 21 21 21 21 21 21 21 20 20 20 20 19 20 20 19 19 19 19 18 18 18 17 17 17 17 17 17 17 17 17 17 18 18 17 17 18 18 18 17 17
22 22 22 23 23 23 23 23 23 23 22 22 22 22 22 22 21 21 21 21 21 21 20 20 20 19 19 20 19 19 19 19 19 18 19 20 20 20 20 20 19 19 19
24 24 24 24 24 25 25 24 25 25 24 24 24 24 24 24 23 22 22 23 22 22 22 22 22 21 21 21 21 21 21 21 20 20 20 21 21 22 21 21 21 21 20
26 26 26 26 26 26 26 26 26 26 27 27 26 26 26 26 25 25 25 25 24 24 24 24 23 23 24 24 24 23 23 23 22 22 22 22 22 22 22 22 22 22 22
28 28 28 28 28 28 28 28 28 28 28 28 29 28 28 29 28 27 27 27 27 26 26 26 26 26 26 26 26 26 25 24 24 24 24 24 24 23 23 23 23 23 23
30 30 30 30 30 31 30 30 30 30 30 30 31 31 31 30 30 29 29 29 29 29 29 29 28 28 28 27 28 27 27 27 26 25 25 25 25 25 25 25 24 24 24
33 32 32 33 32 33 33 33 32 32 32 32 32 33 33 32 32 32 32 32 32 32 31 32 31 31 30 30 29 29 29 29 28 27 27 27 27 28 27 27 26 26 26
34 34 34 34 34 34 35 34 34 34 35 35 35 35 35 35 34 34 34 34 34 34 34 34 33 33 33 32 32 32 31 31 31 30 30 29 29 29 29 29 28 28 29
36 36 36 36 36 36 36 36 36 36 36 37 37 37 38 37 37 36 37 37 36 36 36 35 35 35 34 34 34 34 33 33 33 32 32 31 31 31 31 31 30 30 30
37 37 37 37 37 38 38 38 38 38 37 38 38 38 38 39 38 38 38 38 38 38 38 37 37 36 36 37 36 36 36 35 34 33 32 32 32 32 32 32 32 31 31
37 37 38 38 38 38 39 39 40 40 40 40 41 40 40 40 40 40 39 39 40 40 39 39 39 39 38 37 37 37 37 36 35 34 34 33 33 33 33 33 33 33 32
38 38 38 38 39 39 40 40 40 40 41 41 41 41 41 41 41 41 41 40 40 40 41 41 40 41 41 40 40 40 39 38 38 37 36 35 35 34 34 34 35 35 34
39 39 39 39 39 40 40 41 41 42 42 42 41 42 42 42 42 42 42 42 41 41 42 42 42 42 42 42 41 41 41 40 40 39 39 38 38 37 37 37 36 36 36
39 39 39 39 39 39 40 41 41 42 43 43 43 43 44 44 43 43 44 44 43 43 44 44 43 43 43 43 43 43 42 41 41 41 40 39 39 38 38 37 37 37 37
38 39 39 40 40 40 40 41 41 42 43 44 44 43 44 44 44 44 44 44 44 45 45 46 46 45 45 45 44 44 44 43 43 42 41 40 40 39 38 38 37 37 38
37 38 39 40 40 40 40 40 40 42 43 43 43 44 44 44 45 45 45 45 45 45 45 46 46 46 46 46 46 45 45 45 44 43 42 42 42 41 40 40 39 38 38
36 37 37 38 39 39 39 40 40 40 41 43 43 44 44 44 45 45 46 46 46 46 46 47 47 47 47 47 47 46 45 45 45 45 44 44 43 43 42 41 40 40 39
36 36 36 37 38 39 39 40 41 41 42 42 43 44 45 45 45 46 46 47 47 46 47 47 47 47 47 47 47 46 46 45 46 46 46 45 45 44 43 42 42 42 41
36 36 37 38 38 39 39 40 40 41 42 43 43 45 46 47 47 46 46 46 46 46 46 46 46 46 46 46 46 45 45 45 46 46 46 46 46 45 45 44 43 43 43
35 36 37 38 39 39 40 41 41 42 42 43 43 44 45 46 46 46 45 45 45 44 44 45 45 45 45 45 46 46 45 46 45 45 45 46 46 45 45 45 44 44 44
35 36 37 38 39 39 40 41 42 43 43 44 44 44 44 44 44 44 44 44 44 44 44 44 44 45 44 44 45 45 45 45 45 44 44 44 45 45 45 44 45 45 45
35 36 37 38 39 40 41 42 42 43 43 43 43 43 42 43 43 43 42 42 43 44 44 44 44 44 44 44 44 45 46 46 44 44 45 46 45 45 45 45 45 45 45
Wind_Direction
258 260 260 259 260 259 258 257 256 254 256 257 254 253 254 256 256 257 259 259 258 259 260 260 258 258 258 258 256 254 253 253 251 251 252 251 250 250 254 259 256 256 256
258 258 258 258 257 256 256 257 257 257 256 256 255 255 255 256 257 258 259 260 260 260 260 261 261 259 260 261 259 256 255 257 258 257 256 257 257 257 256 258 261 263 263
256 256 257 257 256 254 256 257 258 257 256 256 255 255 256 256 256 257 258 260 261 261 262 262 264 261 261 262 262 260 258 258 259 259 260 259 259 260 260 261 263 266 267
259 257 257 258 257 255 256 257 258 257 256 255 255 255 256 257 257 256 258 260 260 261 262 263 263 260 260 262 262 262 260 260 262 261 262 261 260 261 262 263 265 265 266
260 258 258 259 259 258 257 256 257 258 257 256 256 256 256 257 257 258 258 259 259 259 260 261 261 261 260 261 262 263 264 262 263 263 262 263 263 264 263 264 265 265 266
261 260 259 259 259 260 260 257 257 257 258 257 257 257 257 257 257 257 258 259 258 259 261 261 261 262 263 261 262 262 263 263 262 261 262 262 263 264 264 264 265 266 268
261 261 261 260 260 260 260 259 257 258 258 258 258 258 258 257 256 256 257 259 259 260 261 262 263 263 263 264 264 263 263 261 261 260 263 264 264 264 264 264 266 266 268
261 261 261 261 260 259 260 260 258 257 257 258 258 258 258 258 257 258 258 259 259 260 261 263 263 264 265 265 264 265 265 262 261 262 263 264 265 265 264 264 264 265 266
262 261 262 262 261 261 261 260 258 258 258 258 258 258 258 258 258 258 258 259 260 260 261 262 263 263 264 265 265 265 265 264 263 263 265 265 267 266 264 264 264 264 265
262 261 261 261 261 261 261 261 260 260 259 259 259 259 259 258 258 259 259 260 260 261 261 262 262 262 263 263 265 265 264 263 263 264 265 266 267 267 265 265 264 264 265
262 261 261 261 261 261 262 262 262 261 260 260 260 260 260 259 259 259 260 261 261 261 262 262 262 262 262 262 264 263 263 263 264 264 265 266 266 266 266 266 265 264 264
262 261 261 261 261 261 262 262 262 261 261 261 261 261 261 260 260 260 261 261 262 262 262 262 262 262 262 263 263 263 262 263 263 263 264 265 265 264 264 265 265 265 263
262 262 262 261 261 262 262 261 261 261 261 262 262 262 261 260 260 260 260 260 261 261 262 262 261 262 262 263 262 262 262 263 264 263 264 264 264 263 263 263 264 266 264
261 262 262 262 262 262 262 261 261 261 261 261 261 262 261 260 260 260 260 260 261 261 261 260 260 261 261 261 261 261 261 262 263 263 263 265 263 262 263 263 264 266 265
262 262 262 262 262 262 262 261 261 261 261 261 261 261 260 260 260 260 261 261 261 261 261 261 260 260 261 261 261 261 261 261 262 262 263 264 263 262 262 263 265 266 266
263 262 262 261 261 261 262 261 261 261 261 261 260 260 261 260 260 259 260 261 261 261 261 261 260 260 260 261 262 262 262 262 263 262 262 262 262 262 262 263 264 265 266
263 262 262 261 261 261 261 262 262 261 261 261 260 260 260 259 259 259 259 259 260 261 260 260 260 259 260 260 261 261 262 263 263 262 262 261 261 261 262 262 264 264 264
263 262 262 262 262 262 262 263 263 262 261 262 261 260 261 260 260 260 259 259 260 260 260 260 260 260 259 259 260 261 261 261 262 261 261 261 260 260 260 261 262 263 263
262 263 262 262 262 263 263 264 263 262 262 262 262 261 262 262 261 260 260 260 260 260 259 259 259 260 259 259 259 260 260 259 259 260 260 259 259 259 260 260 262 262 260
262 263 263 263 263 263 263 263 263 262 262 262 263 263 262 262 262 261 261 261 260 260 259 259 259 260 260 260 260 260 259 258 258 258 258 258 258 259 259 260 260 260 260
261 262 263 263 263 263 262 262 263 263 263 263 264 264 263 263 263 262 262 261 261 261 261 260 260 260 260 260 260 260 259 258 257 257 258 258 257 257 258 259 259 260 260
262 262 262 263 263 263 263 263 264 264 264 264 264 265 265 264 263 263 263 262 262 262 262 261 260 260 260 260 260 259 257 256 256 257 257 258 257 257 258 259 259 260 260
263 264 265 265 264 264 264 265 265 265 264 265 265 265 266 265 264 263 263 263 262 261 261 260 260 259 259 259 258 258 257 256 256 256 256 256 256 257 258 258 258 259 259
264 265 266 267 267 267 267 266 266 266 266 265 265 266 267 267 265 264 262 261 261 261 261 260 259 259 258 258 259 258 258 257 255 255 255 256 256 256 257 257 257 258 258
266 267 267 267 268 268 268 268 268 268 268 268 266 265 266 266 266 265 263 262 261 261 261 260 260 259 258 258 258 258 258 257 256 256 255 255 256 256 255 256 257 258 258
267 269 269 268 268 269 269 269 269 269 269 269 268 267 266 265 266 265 263 262 262 262 262 261 260 260 259 258 258 258 259 258 259 258 257 256 256 255 254 256 257 257 257
Height
5847 5846 5847 5846 5846 5846 5846 5847 5847 5847 5847 5848 5848 5848 5849 5849 5850 5850 5850 5850 5850 5850 5851 5851 5851 5851 5851 5852 5852 5852 5852 5852 5853 5853 5853 5853 5853 5853 5853 5853 5853 5853 5853
5844 5844 5844 5844 5844 5844 5844 5844 5845 5845 5845 5845 5846 5846 5847 5847 5848 5848 5848 5848 5848 5848 5849 5849 5849 5849 5850 5850 5850 5850 5850 5851 5851 5851 5851 5851 5851 5851 5851 5851 5851 5851 5851
5840 5841 5841 5841 5841 5841 5841 5842 5842 5842 5842 5843 5843 5844 5844 5845 5845 5846 5846 5846 5846 5846 5846 5846 5847 5847 5847 5848 5848 5848 5848 5848 5849 5849 5849 5849 5849 5849 5849 5849 5849 5849 5849
5837 5837 5837 5837 5838 5838 5838 5838 5838 5839 5839 5839 5840 5840 5841 5841 5842 5842 5843 5843 5843 5843 5844 5844 5844 5844 5845 5845 5845 5845 5845 5846 5846 5846 5846 5846 5847 5847 5847 5847 5847 5847 5846
5833 5833 5833 5833 5834 5834 5834 5835 5835 5835 5836 5836 5836 5837 5838 5838 5838 5839 5839 5840 5840 5841 5841 5841 5841 5842 5842 5842 5842 5842 5843 5843 5843 5843 5843 5843 5844 5844 5844 5844 5844 5844 5844
5828 5828 5829 5829 5829 5830 5830 5830 5831 5831 5832 5832 5833 5833 5834 5834 5835 5835 5836 5836 5836 5837 5837 5838 5838 5838 5839 5839 5839 5839 5839 5840 5840 5840 5840 5840 5840 5840 5841 5841 5841 5841 5840
5823 5823 5824 5824 5824 5825 5825 5826 5826 5827 5827 5827 5828 5829 5829 5830 5830 5831 5831 5831 5832 5833 5833 5833 5834 5834 5835 5835 5835 5835 5835 5836 5836 5836 5836 5836 5836 5836 5837 5837 5837 5837 5837
5817 5818 5818 5818 5819 5819 5820 5821 5821 5822 5822 5823 5823 5823 5824 5825 5825 5826 5826 5827 5827 5828 5829 5829 5830 5830 5830 5831 5831 5831 5831 5831 5832 5832 5832 5832 5832 5832 5832 5833 5833 5833 5833
5811 5812 5812 5812 5813 5813 5814 5815 5815 5816 5816 5817 5817 5818 5819 5819 5820 5821 5821 5822 5822 5823 5823 5824 5824 5825 5825 5825 5826 5826 5826 5827 5827 5827 5827 5828 5828 5828 5828 5828 5828 5828 5828
5805 5805 5806 5806 5807 5807 5808 5808 5809 5809 5810 5811 5811 5812 5813 5813 5814 5815 5815 5816 5816 5817 5817 5818 5819 5819 5820 5820 5820 5821 5821 5821 5822 5822 5822 5823 5823 5823 5823 5823 5824 5824 5824
5797 5798 5798 5799 5799 5800 5801 5801 5802 5802 5803 5804 5804 5805 5806 5807 5807 5808 5809 5809 5810 5810 5811 5812 5813 5813 5814 5814 5815 5815 5815 5816 5816 5816 5817 5817 5818 5818 5818 5818 5818 5818 5819
5789 5789 5790 5791 5792 5792 5793 5794 5794 5795 5796 5796 5797 5798 5799 5799 5800 5801 5802 5802 5803 5803 5804 5805 5806 5806 5807 5808 5808 5808 5809 5809 5810 5810 5811 5811 5811 5812 5812 5812 5812 5813 5813
5780 5781 5781 5782 5783 5784 5785 5786 5786 5787 5788 5788 5789 5790 5790 5791 5792 5793 5794 5794 5795 5796 5797 5797 5798 5799 5800 5800 5801 5801 5802 5803 5803 5804 5804 5805 5805 5805 5805 5805 5806 5806 5807
5771 5772 5772 5773 5774 5775 5776 5777 5778 5778 5778 5779 5780 5781 5781 5782 5783 5784 5785 5786 5787 5787 5788 5789 5790 5791 5792 5793 5793 5794 5795 5795 5796 5796 5797 5797 5798 5798 5798 5798 5799 5800 5800
5762 5762 5763 5764 5764 5765 5766 5767 5768 5768 5769 5770 5770 5771 5772 5773 5774 5775 5776 5777 5778 5778 5779 5781 5782 5783 5783 5784 5785 5786 5786 5787 5788 5789 5789 5790 5790 5790 5790 5791 5792 5792 5793
5752 5753 5753 5754 5755 5755 5756 5757 5757 5758 5759 5760 5760 5761 5762 5763 5764 5765 5766 5767 5768 5769 5770 5771 5772 5773 5774 5775 5776 5777 5777 5778 5779 5780 5781 5781 5781 5782 5783 5783 5784 5785 5785
5742 5743 5743 5744 5745 5745 5746 5746 5747 5748 5748 5749 5750 5751 5751 5752 5753 5754 5755 5756 5758 5759 5759 5760 5762 5763 5764 5765 5766 5767 5768 5769 5770 5771 5771 5772 5773 5774 5774 5775 5776 5776 5777
5732 5733 5733 5734 5734 5735 5736 5736 5736 5737 5738 5738 5739 5740 5741 5741 5743 5744 5744 5745 5746 5747 5749 5750 5751 5752 5753 5755 5756 5757 5758 5759 5760 5761 5762 5762 5763 5764 5765 5766 5767 5768 5768
5722 5723 5723 5724 5724 5725 5725 5726 5726 5726 5727 5727 5728 5729 5729 5730 5731 5732 5733 5734 5735 5735 5736 5738 5739 5740 5742 5743 5745 5746 5747 5748 5749 5751 5752 5753 5754 5754 5756 5757 5758 5759 5760
5712 5713 5713 5714 5714 5715 5715 5715 5715 5716 5716 5717 5717 5718 5718 5718 5719 5720 5722 5722 5722 5723 5724 5725 5727 5728 5730 5731 5733 5735 5736 5738 5739 5740 5741 5743 5744 5745 5746 5747 5748 5750 5751
5703 5703 5703 5704 5704 5704 5705 5705 5705 5705 5706 5706 5706 5706 5707 5707 5708 5708 5709 5710 5711 5711 5712 5713 5714 5716 5718 5719 5721 5723 5724 5726 5728 5729 5731 5732 5733 5735 5736 5738 5739 5740 5741
5693 5693 5694 5694 5694 5694 5694 5695 5695 5694 5694 5695 5695 5695 5695 5695 5696 5696 5697 5698 5699 5700 5700 5701 5702 5704 5705 5707 5708 5710 5712 5715 5716 5718 5719 5721 5723 5725 5726 5727 5729 5730 5731
5684 5684 5684 5684 5684 5684 5684 5684 5684 5684 5684 5683 5684 5684 5683 5683 5683 5684 5684 5685 5687 5687 5688 5689 5691 5692 5694 5695 5696 5698 5700 5703 5704 5706 5708 5709 5712 5713 5715 5717 5718 5720 5721
5675 5675 5674 5674 5674 5674 5673 5673 5673 5673 5673 5672 5672 5672 5671 5671 5671 5671 5672 5673 5674 5675 5677 5678 5679 5681 5682 5683 5685 5686 5688 5691 5693 5695 5697 5698 5700 5702 5704 5705 5707 5709 5710
5665 5664 5664 5664 5663 5663 5662 5662 5662 5661 5661 5660 5660 5660 5660 5659 5659 5660 5660 5661 5663 5664 5665 5667 5668 5669 5671 5672 5674 5675 5677 5679 5681 5684 5686 5687 5689 5691 5692 5694 5696 5698 5699
5655 5654 5654 5653 5653 5652 5651 5651 5650 5650 5650 5649 5649 5649 5649 5649 5649 5649 5649 5650 5651 5653 5654 5655 5656 5658 5660 5661 5663 5664 5666 5668 5670 5672 5674 5676 5677 5680 5681 5683 5685 5687 5688